This demonstration page uses our WeatherBlox Daily Observations layout. Learn more.

Left ArrowRight Arrow

39.51506, -84.39828

Hourly Observations for February 15, 2016

Temp ( °F °C ) Dew Point ( °F °C ) Humidity (%) Winds ( mph kmh ) Pressure ( in mb ) Visibility ( mi km ) Precip ( " mm )
12:15 am 00:15 Cloudy 22 -5.6 15 -9.5 74 74 Calm 30.15 1021 10 16 0.00 0.00
12:35 am 00:35 Cloudy 22 -5.5 15 -9.2 75 75 SSE 3 6 30.15 1021 10 16 0.00 0.00
12:55 am 00:55 Cloudy 23 -5.2 16 -9 75 75 SE 5 7 30.15 1021 10 16 0.00 0.00
1:15 am 01:15 Cloudy 23 -5.2 16 -9 75 75 SE 6 9 30.12 1020 10 16 0.00 0.00
1:35 am 01:35 Cloudy 23 -5.1 16 -8.7 76 76 SE 5 7 30.12 1020 10 16 0.00 0.00
1:55 am 01:55 Cloudy 23 -5 17 -8.5 77 77 SE 3 6 30.12 1020 10 16 0.00 0.00
2:15 am 02:15 Cloudy 23 -5 17 -8.4 77 77 SE 3 6 30.12 1020 10 16 0.00 0.00
2:35 am 02:35 Cloudy 24 -4.2 18 -7.6 77 77 SE 5 7 30.09 1019 10 16 0.00 0.00
2:55 am 02:55 Cloudy 24 -4.2 19 -7.5 78 78 SSE 5 7 30.09 1019 10 16 0.00 0.00
3:15 am 03:15 Cloudy 24 -4.2 19 -7.2 80 80 SE 3 6 30.09 1019 10 16 0.00 0.00
3:35 am 03:35 Cloudy 24 -4.2 20 -6.7 83 83 S 6 9 30.06 1018 10 16 0.00 0.00
3:55 am 03:55 Cloudy with Mist and Fog 25 -4 21 -6.2 85 85 S 6 9 30.06 1018 5 8 0.00 0.00
4:15 am 04:15 Cloudy with Mist and Fog 26 -3.6 22 -5.7 86 86 SSE 3 6 30.06 1018 4 6 0.00 0.00
4:35 am 04:35 Cloudy with Mist and Fog 26 -3.6 22 -5.6 86 86 Calm 30.06 1018 5 8 0.00 0.00
4:55 am 04:55 Cloudy with Mist and Fog 26 -3.3 22 -5.3 86 86 SSE 3 6 30.06 1018 4 6 0.00 0.00
5:15 am 05:15 Cloudy with Light Snow 27 -2.8 24 -4.7 87 87 Calm 30.06 1018 1 2 0.00 0.00
5:35 am 05:35 Cloudy with Light Snow 27 -2.8 24 -4.7 87 87 S 3 6 30.06 1018 2 2 0.00 0.00
5:55 am 05:55 Cloudy with Light Snow 27 -2.8 24 -4.7 87 87 S 3 6 30.06 1018 2 2 0.00 0.00
6:15 am 06:15 Cloudy with Light Snow 27 -2.8 24 -4.6 88 88 S 3 6 30.06 1018 1 2 0.00 0.00
6:35 am 06:35 Cloudy with Mist and Fog 27 -2.8 24 -4.6 88 88 Calm 30.06 1018 2 2 0.00 0.00
6:55 am 06:55 Cloudy with Light Snow 29 -1.5 26 -3.2 88 88 Calm 30.03 1017 1 2 0.00 0.00
7:15 am 07:15 Cloudy with Light Snow 29 -1.5 26 -3.2 88 88 Calm 30.03 1017 1 2 0.00 0.00
7:35 am 07:35 Cloudy with Snow 29 -1.5 26 -3.2 88 88 Calm 30.03 1017 1 1 0.00 0.00
7:55 am 07:55 Cloudy with Light Snow 29 -1.5 26 -3.2 88 88 Calm 30.03 1017 1 1 0.00 0.00
8:15 am 08:15 Cloudy with Light Wintry Mix 29 -1.5 26 -3.2 88 88 Calm 30.06 1018 1 2 0.00 0.00
8:35 am 08:35 Cloudy with Light Wintry Mix 29 -1.5 26 -3.1 89 89 Calm 30.06 1018 1 2 0.00 0.00
8:55 am 08:55 Cloudy with Mist and Fog 29 -1.5 26 -3.1 89 89 Calm 30.06 1018 1 2 0.00 0.00
9:15 am 09:15 Cloudy with Mist and Fog 29 -1.5 26 -3.1 89 89 Calm 30.03 1017 1 1 0.00 0.00
9:35 am 09:35 Cloudy with Mist and Fog 29 -1.5 27 -3 90 90 Calm 30.03 1017 1 2 0.00 0.00
9:55 am 09:55 Cloudy with Mist and Fog 29 -1.5 27 -3 90 90 Calm 30.03 1017 1 2 0.00 0.00
10:15 am 10:15 Cloudy with Mist and Fog 29 -1.5 27 -3 90 90 Calm 30.03 1017 1 2 0.00 0.00
10:35 am 10:35 Cloudy with Mist and Fog 31 -0.7 28 -2.3 89 89 Calm 30.03 1017 1 2 0.00 0.00
10:55 am 10:55 Cloudy with Drizzle 32 0 29 -1.7 88 88 Calm 30.03 1017 2 2 0.00 0.00
11:15 am 11:15 Cloudy with Mist and Fog 34 1.2 31 -0.5 89 89 Calm 30.00 1016 2 3 0.00 0.00
11:35 am 11:35 Cloudy with Mist and Fog 34 1.2 31 -0.5 89 89 S 7 11 30.00 1016 4 6 0.00 0.00
11:55 am 11:55 Cloudy with Mist and Fog 34 1.3 31 -0.4 89 89 S 8 13 30.00 1016 4 6 0.00 0.00
12:15 pm 12:15 Cloudy with Mist and Fog 37 2.6 33 0.3 85 85 SSW 7 11 30.00 1016 5 8 0.00 0.00
12:35 pm 12:35 Cloudy 37 2.6 32 0.2 84 84 SSW 9 15 29.94 1014 7 11 0.00 0.00
12:55 pm 12:55 Cloudy 37 2.6 32 0.1 84 84 S 9 15 29.94 1014 7 11 0.00 0.00
1:15 pm 13:15 Cloudy 37 2.6 32 0.1 84 84 SSW 7 11 29.94 1014 7 11 0.00 0.00
1:35 pm 13:35 Cloudy with Haze 37 2.6 32 0.1 84 84 S 7 11 29.91 1013 5 8 0.00 0.00
1:55 pm 13:55 Cloudy with Haze 37 2.6 32 0.2 84 84 SSW 7 11 29.91 1013 5 8 0.00 0.00
2:15 pm 14:15 Cloudy with Mist and Fog 37 2.6 33 0.3 85 85 SSW 8 13 29.91 1013 5 8 0.00 0.00
2:35 pm 14:35 Cloudy with Mist and Fog 37 2.6 33 0.3 85 85 S 6 9 29.91 1013 5 8 0.00 0.00
2:55 pm 14:55 Cloudy with Mist and Fog 37 2.6 33 0.3 85 85 S 6 9 29.91 1013 4 6 0.00 0.00
3:15 pm 15:15 Cloudy with Mist and Fog 37 2.6 33 0.5 86 86 SSW 7 11 29.88 1012 4 6 0.00 0.00
3:35 pm 15:35 Cloudy with Mist and Fog 37 2.6 33 0.5 86 86 SSW 7 11 29.88 1012 4 6 0.00 0.00
3:55 pm 15:55 Cloudy with Mist and Fog 37 2.6 33 0.5 86 86 Calm 29.88 1012 4 6 0.00 0.00
4:15 pm 16:15 Cloudy with Mist and Fog 37 2.6 33 0.6 87 87 S 3 6 29.88 1012 3 5 0.00 0.00
4:35 pm 16:35 Cloudy with Mist and Fog 37 2.6 33 0.7 87 87 SSW 3 6 29.88 1012 2 3 0.00 0.00
4:55 pm 16:55 Cloudy with Mist and Fog 37 2.6 33 0.8 88 88 S 3 6 29.88 1012 1 2 0.00 0.00
5:15 pm 17:15 Cloudy with Mist and Fog 37 2.6 33 0.8 88 88 Calm 29.88 1012 1 1 0.00 0.00
5:35 pm 17:35 Cloudy with Fog 37 2.6 34 1 89 89 Calm 29.88 1012 1 1 0.00 0.00
5:55 pm 17:55 Cloudy with Fog 37 2.6 34 1 89 89 Calm 29.88 1012 0 0 0.00 0.00
6:15 pm 18:15 Cloudy with Fog 37 2.6 34 1 89 89 Calm 29.85 1011 5 8 0.00 0.00
6:35 pm 18:35 Cloudy with Fog 37 2.6 34 1 89 89 N 3 6 29.85 1011 0 0 0.00 0.00
6:55 pm 18:55 Cloudy with Fog 37 2.6 34 1 89 89 Calm 29.85 1011 0 0 0.00 0.00
7:15 pm 19:15 Cloudy with Fog 37 2.6 34 1 89 89 NNE 3 6 29.85 1011 0 0 0.00 0.00
7:35 pm 19:35 Cloudy with Fog 37 2.6 34 1 89 89 Calm 29.85 1011 0 0 0.00 0.00
7:55 pm 19:55 Cloudy with Fog 35 1.9 32 0.2 89 89 ENE 3 6 29.88 1012 0 0 0.00 0.00
8:15 pm 20:15 Cloudy with Fog 37 2.5 34 1 90 90 Calm 29.85 1011 0 0 0.00 0.00
8:35 pm 20:35 Cloudy with Fog 36 2.2 33 0.6 89 89 Calm 29.88 1012 0 0 0.00 0.00
8:55 pm 20:55 Cloudy with Fog 36 2 33 0.5 90 90 Calm 29.88 1012 0 0 0.00 0.00
9:15 pm 21:15 Cloudy with Fog 36 2 33 0.5 90 90 Calm 29.88 1012 0 0 0.00 0.00
9:35 pm 21:35 Cloudy with Fog 36 2 33 0.5 90 90 Calm 29.88 1012 0 0 0.00 0.00
9:55 pm 21:55 Cloudy with Fog 36 2 33 0.5 90 90 N 3 6 29.88 1012 0 0 0.00 0.00
10:15 pm 22:15 Cloudy with Fog 36 2 33 0.5 90 90 N 3 6 29.88 1012 0 0 0.00 0.00
10:35 pm 22:35 Cloudy with Fog 36 2 33 0.5 90 90 N 3 6 29.88 1012 0 0 0.00 0.00
10:55 pm 22:55 Cloudy with Fog 35 1.8 33 0.3 90 90 NNE 3 6 29.83 1010 0 0 0.00 0.00
11:15 pm 23:15 Cloudy with Fog 34 1.3 32 0 91 91 Calm 29.85 1011 0 0 0.00 0.00
11:35 pm 23:35 Cloudy with Fog 35 1.6 32 0.2 91 91 NNE 3 6 29.83 1010 0 0 0.00 0.00
11:55 pm 23:55 Cloudy with Fog 35 1.6 32 0.2 91 91 Calm 29.83 1010 1 1 0.00 0.00

Powered by AerisWeather